Location: Unspecified
(40.8819°N, 0.0000°E)
Time: 19:00:57
(UTC+00:00)

BUGSAT 1 - Pass Details

Date: 24 April 2024
Orbit: 531 x 580 km, 98.1° (Epoch: 25 May)

Event Time Altitude Azimuth Distance (km) Brightness Sun altitude
Rises 20:08:08 0° 188° (S) 2,699 ? -14.2°
Reaches altitude 10° 20:10:24 10° 198° (SSW) 1,820 ? -14.6°
Maximum altitude 20:13:57 32° 263° (W) 973 ? -15.2°
Drops below altitude 10° 20:17:34 10° 327° (NNW) 1,862 ? -15.7°
Sets 20:19:55 0° 337° (NNW) 2,773 ? -16.1°
